Flag for U.S.A. Weather past 2 weeks in San Jose, California, U.S.A.

Now
67 °F

Passing clouds.


Feels Like: 67 °F
Forecast: 44 / 65 °F
Wind: 9 mph from Northwest

Location: San Jose International Airport

Current Time: Mar 4, 2015 at 3:44:34 PM

Latest Report: Mar 4, 2015 at 2:53 PM


Visibility: 10 mi

Pressure: 30.12 "Hg

Humidity: 26%

Dew point: 31 °F

Location of San JoseLocation

Historic Weather in San Jose — Graph

°F

San Jose temperature yesterday

Maximum temperature yesterday: 64 °F (at 1:53 PM)
Minimum temperature yesterday: 41 °F (at 2:53 AM)
Average temperature yesterday: 52 °F

Past Weeks' High & Low Weather Summary

 TemperatureHumidityPressure
High70 °F (Feb 20, 2:53 PM)94% (Feb 19, 4:03 AM)30.36 "Hg (Feb 19, 4:03 AM)
Low38 °F (Feb 24, 6:53 AM)17% (Feb 24, 1:53 PM)29.74 "Hg (Feb 28, 3:53 AM)
Average55 °F65%30.01 "Hg
* Reported Feb 17 1:53 PM — Mar 4 1:53 PM, San Jose, Weather by CustomWeather, © 2015

Note: Actual official high and low records may vary slightly from our data, if they occured in-between our weather recording intervals... More about our weather records

Advertising

San Jose weather history for previous 24 hours

 ConditionsComfort  
Time TempWeatherWind HumidityBarometerVisibility
1:53 PM
Wed, Mar 4
68 °FPassing clouds.6 mph22%30.12 "Hg10 mi
12:53 PM66 °FPassing clouds.3 mph28%30.13 "Hg10 mi
11:53 AM65 °FPassing clouds.No wind37%30.14 "Hg10 mi
10:53 AM60 °FPassing clouds.No wind46%30.14 "Hg10 mi
9:53 AM58 °FPassing clouds.No wind60%30.14 "Hg10 mi
8:53 AM54 °FPassing clouds.6 mph69%30.14 "Hg10 mi
7:53 AM48 °FPassing clouds.No wind80%30.11 "Hg10 mi
6:53 AM43 °FPassing clouds.No wind89%30.08 "Hg10 mi
5:53 AM45 °FPassing clouds.5 mph86%30.07 "Hg10 mi
4:53 AM44 °FClear.3 mph85%30.06 "Hg10 mi
3:53 AM43 °FClear.3 mph86%30.04 "Hg10 mi
2:53 AM44 °FClear.3 mph89%30.04 "Hg10 mi
1:53 AM46 °FClear.3 mph89%30.05 "Hg10 mi
12:53 AM48 °FClear.No wind86%30.04 "Hg10 mi
11:53 PM
Tue, Mar 3
50 °FClear.No wind83%30.03 "Hg10 mi
10:53 PM52 °FClear.No wind83%30.03 "Hg10 mi
9:53 PM52 °FClear.6 mph83%30.03 "Hg10 mi
8:53 PM53 °FPassing clouds.6 mph80%30.01 "Hg10 mi
7:53 PM55 °FPassing clouds.8 mph74%30.00 "Hg10 mi
6:53 PM56 °FPassing clouds.7 mph65%29.97 "Hg10 mi
5:53 PM58 °FBroken clouds.12 mph65%29.96 "Hg10 mi
4:53 PM60 °FBroken clouds.10 mph56%29.96 "Hg10 mi
3:53 PM63 °FScattered clouds.9 mph48%29.96 "Hg10 mi
Weather by CustomWeather, © 2015

See weather overviewHow to use our weather pages